Weather History for Point Salines, Grenada

Change the Weather History Date:

Friday, June 28, 2013

  Actual Average Record
Temperature  
Mean Temperature 82 °F -  
Max Temperature 88 °F 84 °F 102 °F (2000)
Min Temperature 75 °F 76 °F 32 °F (2000)
Cooling Degree Days 16    
Growing Degree Days 32 (Base 50)    
Moisture  
Dew Point 75 °F    
Average Humidity 76    
Maximum Humidity 100    
Minimum Humidity 58    
Precipitation  
Precipitation 0.28 in - - ()
Sea Level Pressure  
Sea Level Pressure 29.95 in    
Wind  
Wind Speed 12 mph ()    
Max Wind Speed 18 mph    
Max Gust Speed -    
Visibility 6.5 miles    
Events Rain , Thunderstorm    
Averages and records for this station are not official NWS values.
T = Trace of Precipitation, MM = Missing Value Source: Averaged Metar Reports

Daily Weather History Graph

Daily Weather History Graph

Search for Another Location

Airport:

Trip Planner

Search our weather history database for the weather conditions in past years. The results will help you decide how hot, cold, wet, or windy it might be!

Date:

Astronomy

Jun. 28, 2013 Rise Set
Actual Time 5:45 AM AST 6:35 PM AST
Civil Twilight 5:22 AM AST 6:58 PM AST
Nautical Twilight 4:55 AM AST 7:25 PM AST
Astronomical Twilight 4:27 AM AST 7:53 PM AST
Moon 11:10 PM AST (6/28) 10:45 AM AST (6/28)
Length of Visible Light 13h 35m
Length of Day
12h 49m
Waning Gibbous, 66% of the Moon is Illuminated
Jun 28
Waning Gibbous
Jun 30
Last Quarter
Jul 8
New
Jul 15
First Quarter
Jul 22
Full

Hourly Weather History & Observations

Time (AST) Temp. Heat Index Dew Point Humidity Pressure Visibility Wind Dir Wind Speed Gust Speed Precip Events Conditions
12:00 AM 80.6 °F 87.1 °F 77.0 °F 89% 29.98 in 6.2 mi ESE 16.1 mph - N/A   Unknown
1:00 AM 80.6 °F 86.2 °F 75.2 °F 84% 29.98 in 6.2 mi ESE 17.3 mph - N/A   Scattered Clouds
2:00 AM 81 °F - 74 °F 75% 29.96 in 10 mi ESE 11.5 mph - -   Widespread Dust
2:00 AM 80.6 °F 86.2 °F 75.2 °F 84% 29.95 in 6.2 mi ESE 11.5 mph - N/A   Partly Cloudy
3:00 AM 80.6 °F 86.2 °F 75.2 °F 84% 29.95 in 6.2 mi ESE 13.8 mph - N/A   Partly Cloudy
4:00 AM 80.6 °F 85.4 °F 73.4 °F 79% 29.95 in 6.2 mi ESE 16.1 mph - N/A   Partly Cloudy
5:00 AM 80 °F - 75 °F 79% 29.96 in 7 mi East 13.8 mph - - Rain Light Rain Showers
5:00 AM 80.6 °F 86.2 °F 75.2 °F 84% 29.95 in 6.2 mi East 13.8 mph - N/A Rain Light Rain Showers
6:00 AM 80.6 °F 86.2 °F 75.2 °F 84% 29.95 in 6.2 mi East 9.2 mph - N/A   Mostly Cloudy
7:00 AM 80.6 °F 86.2 °F 75.2 °F 84% 29.98 in 6.2 mi ENE 12.7 mph - N/A   Scattered Clouds
8:00 AM 84 °F - 76 °F 70% 29.98 in 6 mi ESE 15.0 mph - -   Widespread Dust
8:00 AM 84.2 °F 92.3 °F 75.2 °F 74% 29.98 in 6.2 mi ESE 15.0 mph - N/A   Partly Cloudy
9:00 AM 86.0 °F 95.1 °F 75.2 °F 70% 29.98 in 6.2 mi East 13.8 mph - N/A   Partly Cloudy
10:00 AM 86.0 °F 93.4 °F 73.4 °F 66% 29.98 in 6.2 mi East 11.5 mph - N/A   Mostly Cloudy
11:00 AM 85 °F - 75 °F 66% 29.98 in 7 mi East 18.4 mph - - Rain Light Rain Showers
11:00 AM 84.2 °F 92.3 °F 75.2 °F 74% 29.98 in 6.2 mi East 18.4 mph - N/A   Scattered Clouds
12:00 PM 86.0 °F 93.4 °F 73.4 °F 66% 29.95 in 6.2 mi East 18.4 mph - N/A   Mostly Cloudy
1:00 PM 86.0 °F 91.8 °F 71.6 °F 62% 29.92 in 6.2 mi East 18.4 mph - N/A   Mostly Cloudy
2:00 PM 87 °F - 74 °F 58% 29.92 in 11 mi ENE 13.8 mph - -   Widespread Dust
2:00 PM 87.8 °F 97.6 °F 75.2 °F 66% 29.92 in 6.2 mi ENE 13.8 mph - N/A   Mostly Cloudy
3:00 PM 87.8 °F 95.6 °F 73.4 °F 62% 29.92 in 6.2 mi ENE 16.1 mph - N/A   Mostly Cloudy
4:00 PM 86.0 °F 93.4 °F 73.4 °F 66% 29.89 in 6.2 mi NE 11.5 mph - N/A   Mostly Cloudy
5:00 PM 86 °F - 74 °F 59% 29.91 in 9 mi ENE 11.5 mph - -   Mostly Cloudy
5:00 PM 86.0 °F 93.4 °F 73.4 °F 66% 29.89 in 6.2 mi ENE 11.5 mph - N/A   Mostly Cloudy
6:00 PM 84.2 °F 92.3 °F 75.2 °F 74% 29.92 in 6.2 mi East 15.0 mph - N/A Rain Light Rain Showers
7:00 PM 80.6 °F 86.2 °F 75.2 °F 84% 29.92 in 6.2 mi East 12.7 mph - N/A   Mostly Cloudy
8:00 PM 81 °F - 74 °F 75% 29.94 in 6 mi East 3.5 mph - -   Partly Cloudy
8:00 PM 80.6 °F 86.2 °F 75.2 °F 84% 29.92 in 6.2 mi East 3.5 mph - N/A   Mostly Cloudy
9:00 PM 80.6 °F 85.4 °F 73.4 °F 79% 29.95 in 6.2 mi East 17.3 mph - N/A   Mostly Cloudy
10:00 PM 75.2 °F - 75.2 °F 100% 29.95 in 4.3 mi Calm Calm - N/A Rain Rain Showers
11:00 PM 76 °F - 76 °F 100% 29.93 in 6 mi Calm Calm - - Thunderstorm Light Thunderstorm
11:00 PM 77.0 °F - 77.0 °F 100% 29.92 in 6.2 mi Calm Calm - N/A   Mostly Cloudy